www.pogodaiklimat.ru

Погода и климат >> Архив погоды >> Португалия >> Аэропорт Лажеша


ПОГОДА в Аэропорту Лажеша

  • Прогноз погоды в Аэропорту Лажеша
  • Монитор погоды в Аэропорту Лажеша

АРХИВ ПОГОДЫ в Аэропорту Лажеша

Время (UTC), дата Ветер
(напр.,м/с)
 
Видим.   Явления Облачность Т
(С)
Тd
(С)
f
(%)
Тe
(С)
Тes
(С)
Комфортность P
(гПа)
Po
(гПа)
Тmin
(С)
Tmax
(С)
R
(мм)
R24
(мм)
S
(см)
12 10.08 ЮВ 5 7000 м слаб. дождь 10/6 180 м
[Cu Sc As op]
+19.0 +17.7 92 +20 +21 1023.1 1016.6 4
15 10.08 В 5 2000 м дождь {морось} 10/10 210 м
[Cu Sc]
+19.0 +17.7 92 +20 +20 1022.7 1016.3
18 10.08 В 5 10 км {дождь, морось} 10/6 270 м
[Cu Sc As op]
+20.6 +18.7 89 +25 +25 комфорт 1022.4 1015.9 +21.0 5
21 10.08 В 4 10 км {дождь, морось} 10/6 210 м
[Cu Sc As op]
+19.9 +18.9 94 +23 +23 комфорт 1023.2 1016.8
00 11.08 СВ 5 10 км {дождь, морось} 10/5 210 м
[Cu med, cong As op]
+19.8 +17.4 86 +22 +22 комфорт 1024.3 1017.8
03 11.08 СВ 3 10 км 8/3 600 м
[Cu med, cong As op]
+19.8 +17.2 85 +23 +23 комфорт 1024.4 1017.9
06 11.08 В 4 10 км 8/3 600 м
[Cu med, cong As op]
+19.7 +16.7 83 +22 +22 комфорт 1023.7 1017.3 +18.9
09 11.08 В 5 10 км 4/4 600 м
[Cu med, cong Ci fib]
+21.0 +16.4 75 +25 +26 комфорт 1025.1 1018.6
12 11.08 В 5 10 км 8/5 750 м
[Cu med, cong Ci fib]
+23.2 +17.6 71 +29 +32 душно 1026.3 1019.8
15 11.08 В 5 10 км 9/9 750 м
[Cu Sc]
+23.3 +17.7 71 +29 +30 душно 1025.8 1019.3
18 11.08 В 4 10 км 9/9 750 м
[Cu med, cong]
+22.2 +17.3 74 +27 +27 душно 1025.6 1019.1 +23.6
21 11.08 В 3 10 км 8/8 600 м
[Cu med, cong]
+21.2 +17.9 81 +25 +25 комфорт 1026.1 1019.6
00 12.08 В 4 10 км 6/6 540 м
[Cu Sc]
+20.8 +17.5 81 +25 +25 комфорт 1026.5 1020.0
03 12.08 В 4 10 км 5/5 540 м
[Cu hum]
+20.4 +17.2 82 +24 +24 комфорт 1025.4 1019.0
06 12.08 В 2 10 км 4/4 600 м
[Cu hum]
+19.9 +17.0 83 +23 +23 комфорт 1025.1 1018.6 +19.5
09 12.08 В 3 10 км 3/3 600 м
[Cu med, cong Ci fib]
+20.6 +17.1 80 +24 +26 комфорт 1025.8 1019.3
12 12.08 ЮВ 4 10 км 1/1 750 м
[Cu hum Ci fib]
+22.7 +16.8 69 +27 +37 душно 1026.5 1020.0
15 12.08 ЮВ 5 10 км 1/1 750 м
[Cu Sc Ci fib]
+24.4 +17.4 65 +28 +36 душно 1026.0 1019.5
18 12.08 ЮВ 4 10 км 3/3 600 м
[Cu med, cong]
+23.6 +17.9 70 +28 +30 душно 1025.8 1019.3 +24.5
21 12.08 ЮВ 3 10 км 4/4 700 м
[Cu med, cong]
+21.6 +18.4 82 +26 +26 душно 1026.5 1020.0
00 13.08 штиль 0 10 км 3/3 700 м
[Cu hum]
+20.0 +18.2 89 +23 +23 комфорт 1027.3 1020.8
03 13.08 штиль 0 10 км 3/3 700 м
[Cu hum]
+19.2 +17.7 91 +21 +21 комфорт 1026.3 1019.8
06 13.08 штиль 0 10 км 3/3 700 м
[Cu hum]
+19.0 +17.5 91 +20 +20 1026.1 1019.6 +19.0
09 13.08 З 2 10 км 3/3 700 м
[Cu med, cong]
+21.2 +17.1 77 +25 +27 комфорт 1027.0 1020.5
12 13.08 В 3 10 км 3/3 900 м
[Cu hum]
+24.0 +16.8 64 +28 +36 душно 1028.0 1021.5
15 13.08 ЮВ 6 10 км 1/1 750 м
[Cu hum]
+25.6 +19.0 67 +31 +37 очень
душно
1027.0 1020.5
18 13.08 СЗ 6 10 км 3/3 750 м
[Cu med, cong]
+25.4 +19.4 69 +31 +32 очень
душно
1026.5 1020.0 +26.8
21 13.08 СВ 2 10 км 6/6 420 м
[Cu Sc]
+23.2 +20.1 83 +30 +30 очень
душно
1027.0 1020.5
00 14.08 штиль 0 10 км 1/1 600 м
[Cu med, cong]
+21.6 +19.3 87 +27 +27 душно 1028.0 1021.5
03 14.08 штиль 0 10 км 1/1 420 м
[Cu hum]
+20.0 +18.5 91 +23 +23 комфорт 1027.6 1021.2
06 14.08 штиль 0 10 км ясно +19.2 +17.7 91 +21 +21 комфорт 1026.8 1020.3 +19.0
09 14.08 штиль 0 10 км 1/1 450 м
[Cu Sc]
+20.8 +18.9 89 +25 +29 комфорт 1027.5 1021.0
12 14.08 В 3 10 км 3/3 750 м
[Cu med, cong]
+26.0 +19.2 66 +31 +40 очень
душно
1028.0 1021.5
15 14.08 С 3 10 км 1/1 600 м
[Cu med, cong]
+26.0 +19.6 68 +32 +44 очень
душно
1027.6 1021.2
18 14.08 С 2 10 км 1/1 600 м
[Cu hum]
+25.6 +19.7 70 +31 +36 очень
душно
1026.8 1020.3 +27.0
21 14.08 З 2 10 км 1/1 600 м
[Cu hum]
+23.0 +20.1 84 +30 +30 очень
душно
1027.6 1021.2
00 15.08 штиль 0 10 км 1/1 450 м
[Cu hum]
+21.4 +18.5 84 +26 +26 душно 1028.3 1021.8
03 15.08 штиль 0 10 км 1/1 450 м
[Cu hum]
+20.6 +18.8 89 +24 +24 комфорт 1027.5 1021.0
06 15.08 штиль 0 10 км 1/1 450 м
[Cu hum]
+20.4 +17.4 83 +23 +23 комфорт 1026.6 1020.1 +20.0
09 15.08 З 2 10 км 1/1 360 м
[Cu hum]
+22.0 +16.9 73 +26 +29 душно 1027.3 1020.8
12 15.08 С 4 10 км 1/1 750 м
[Cu hum]
+24.6 +19.3 72 +30 +39 очень
душно
1027.5 1021.0
15 15.08 В 5 10 км 4/4 750 м
[Cu med, cong]
+25.3 +19.1 69 +30 +36 душно 1026.6 1020.1
18 15.08 З 2 10 км 3/3 750 м
[Cu med, cong]
+26.2 +19.6 67 +32 +35 очень
душно
1026.5 1020.0 +26.2
21 15.08 З 2 10 км 1/1 450 м
[Cu hum]
+24.4 +20.9 81 +31 +31 очень
душно
1026.5 1020.0
00 16.08 ЮЗ 2 10 км 1/1 450 м
[Cu hum]
+23.0 +20.1 84 +30 +30 очень
душно
1026.6 1020.1
03 16.08 штиль 0 10 км 1/1 450 м
[Cu hum]
+22.4 +19.8 85 +28 +28 душно 1025.3 1018.8
06 16.08 ЮЗ 3 10 км 1/1 450 м
[Cu hum]
+22.4 +20.4 88 +29 +29 очень
душно
1024.1 1017.6 +21.5
09 16.08 ЮЗ 4 10 км 1/1 450 м
[Cu hum]
+24.0 +20.3 80 +30 +32 очень
душно
1024.1 1017.6
12 16.08 С 3 10 км 5/5 750 м
[Cu med, cong]
+25.2 +21.0 78 +32 +38 очень
душно
1024.1 1017.6
15 16.08 СВ 3 10 км 5/5 750 м
[Cu med, cong]
+26.0 +21.3 75 +33 +40 очень
душно
1023.7 1017.3
18 16.08 СВ 2 10 км 4/4 840 м
[Cu hum]
+26.2 +21.2 74 +33 +36 очень
душно
1022.4 1015.9 +27.0
21 16.08 штиль 0 10 км 1/1 700 м
[Cu hum]
+25.8 +21.9 79 +33 +33 очень
душно
1022.1 1015.6
00 17.08 ЮЗ 2 10 км 1/1 450 м
[Cu hum]
+24.0 +20.8 82 +30 +30 очень
душно
1021.7 1015.2
03 17.08 ЮЗ 2 10 км 1/1 450 м
[Cu hum]
+23.7 +20.6 83 +30 +30 очень
душно
1020.4 1013.9
06 17.08 З 3 10 км 1/1 450 м
[Cu hum]
+23.4 +20.9 86 +31 +31 очень
душно
1018.7 1012.2 +23.4
09 17.08 ЮЗ 5 10 км 3/1 450 м
[Cu Sc Ci fib]
+25.3 +19.9 72 +31 +32 очень
душно
1018.5 1012.0

 

Местоположение метеостанции Аэропорт Лажеша (Португалия): широта 38.77 долгота -27.10 высота над уровнем моря 54 м.

В архиве по умолчанию представлена погода в Аэропорту Лажеша за последнюю неделю. Архивные данные за месяц целиком и за предыдущие месяцы, начиная с января 2011 года, Вы можете получить, выбрав интересующий диапазон дат из раскрывающегося списка и нажав кнопку "Ввод!".


*Определитесь, кто Вы:
робот инопланетянин человек

Внимание! Время в таблицах - всемирное. Для получения местного времени необходимо прибавить поправку, которая равна 0 ч.

Смотрите также архив погоды в соседних городах и на ближайших метеорологических станциях:

Погода в Ангра-ду-Эроижму (Португалия) (15 км)
Погода на Острове Грасьоса (Португалия) (88 км)
Погода в Сан-Жоржи (Португалия) (94 км)
Погода в Пико (Португалия) (119 км)
Погода в Орте (Португалия) (136 км)
Погода в Каштелу-Бранку (Португалия) (143 км)
Погода в Понта-Делгаде (Португалия) (168 км)
Погода в Санта-Марии (Португалия) (263 км)
Погода на Флошише (Португалия) (356 км)
Погода в Фуншале (Португалия) (1146 км)

Пояснения к столбцам:

Ветер - указаны скорость ветра в м/с - средняя за 10 мин, порывы в срок и между сроками (в фигурных скобках) и направление, откуда дует ветер: С - северный, СВ - северо-восточный, В - восточный, ЮВ - юго-восточный, Ю - южный, ЮЗ - юго-западный, З - западный, СЗ - северо-западный.
Видимость - горизонтальная дальность видимости в метрах или километрах. При видимости от 1 до 10 км при отсутствии осадков обычно наблюдается дымка, при ухудшении видимости до 1 км и менее - туман. В сухую погоду видимость может ухудшаться дымом, пылью или мглою.
Явления - указаны атмосферные явления, наблюдавшиеся в срок или в последний час перед сроком; фигурными скобками обозначены явления, наблюдавшиеся между сроками (за 1-3 часа до срока); квадратными скобками обозначены град или гололедные отложения с указанием их диаметра в мм.
Облачность - указаны через наклонную черту общая и нижняя облачность в баллах и высота нижней границы облаков в метрах; квадратными скобками обозначены формы облаков: Ci - перистые, Cs - перисто-слоистые, Cc - перисто-кучевые, Ac - высококучевые, As - высокослоистые, Sc - слоисто-кучевые, Ns - слоисто-дождевые, Cu - кучевые, Cb - кучево-дождевые. Подробнее классификацию облаков см. в Атласе облаков (PDF).
T - Температура воздуха - температура, измеренная на высоте 2 м над землей.
Td - Температура точки росы - температура, при понижении до которой содержащийся в воздухе водяной пар достигнет насыщения.
f - Относительная влажность воздуха - влажноcть воздуха, измеренная на высоте 2 м над землей.
Te - Эффективная температура - температура, которую ощущает одетый по сезону человек в тени. Характеристика душности погоды. При расчете учитывается влияние влажности воздуха и скорости ветра на теплоощущения человека.
Tes - Эффективная температура на солнце - температура, которую ощущает человек, с поправкой на солнечный нагрев. Характеристика знойности погоды. Зависит от высоты солнца над горизонтом, облачности и скорости ветра. Ночью, в пасмурную погоду, а также при ветре 12 м/с и более поправка равна нулю.
P - Атмосферное давление - приведенное к уровню моря атмосферное давление.
Po - Атмосферное давление - измеренное на уровне метеостанции атмосферное давление.
Tmin - Минимальная температура - минимум температуры воздуха на высоте 2 м над землей.
Tmax - Максимальная температура - максимум температуры воздуха на высоте 2 м над землей.
R - Количество осадков - Количество выпавших осадков за период времени, мм. При наведении курсора мыши на число - период времени, за который выпало указанное количество осадков.
R24 - Количество осадков - Количество выпавших осадков за 24 часа, мм.
S - Снежный покров - Высота снежного покрова, см. При наведении курсора мыши на число - состояние снежного покрова и степень покрытия местности в баллах.